Pratica di Mare, Italy

2:37 PM CET on February 21, 2017 (GMT +0100)
Pratica Di Mare Mil

Weather History for LIRE - January, 2013

Change the Weather History Date:

Wednesday, January 2, 2013

  Actual Average Record
Temperature  
Mean Temperature 51 °F -  
Max Temperature 55 °F 55 °F 62 °F (2007)
Min Temperature 47 °F 39 °F 32 °F (2002)
Degree Days  
Heating Degree Days 14    
Growing Degree Days 1 (Base 50)    
Moisture  
Dew Point 47 °F    
Average Humidity 83    
Maximum Humidity 100    
Minimum Humidity 61    
Precipitation  
Precipitation 0.02 in 0.10 in - ()
Sea Level Pressure  
Sea Level Pressure 30.09 in    
Wind  
Wind Speed 8 mph ()    
Max Wind Speed 16 mph    
Max Gust Speed -    
Visibility 6.7 miles    
Events Rain    
Averages and records for this station are not official NWS values.
T = Trace of Precipitation, MM = Missing Value Source: Averaged Metar Reports

Daily Weather History Graph

Daily Weather History Graph

Search for Another Location

Airport or City:

Trip Planner

Search our weather history database for the weather conditions in past years. The results will help you decide how hot, cold, wet, or windy it might be!

Date:

Astronomy

Jan. 02, 2013 Rise Set
Actual Time 7:37 AM CET 4:51 PM CET
Civil Twilight 7:06 AM CET 5:22 PM CET
Nautical Twilight 6:31 AM CET 5:57 PM CET
Astronomical Twilight 5:57 AM CET 6:31 PM CET
Moon 10:11 PM CET (1/2) 10:06 AM CET (1/2)
Length of Visible Light 10h 16m
Length of Day
9h 14m
Waning Gibbous, 77% of the Moon is Illuminated
Jan 2
Waning Gibbous
Jan 5
Last Quarter
Jan 11
New
Jan 19
First Quarter
Jan 27
Full

Hourly Weather History & Observations

Time (CET) Temp. Dew Point Humidity Pressure Visibility Wind Dir Wind Speed Gust Speed Precip Events Conditions
12:55 AM 50.0 °F 48.2 °F 94% 30.06 in 6.2 mi Variable 2.3 mph - N/A   Light Drizzle
1:00 AM 49 °F 48 °F 94% 30.09 in 6 mi 2.3 mph - - Rain Light Drizzle
1:55 AM 50.0 °F 48.2 °F 94% 30.06 in 6.2 mi East 8.1 mph - N/A   Mostly Cloudy
2:55 AM 50.0 °F 48.2 °F 94% 30.06 in 6.2 mi East 8.1 mph - N/A Rain Light Rain
3:55 AM 48.2 °F 46.4 °F 93% 30.06 in 6.2 mi NE 4.6 mph - N/A   Mostly Cloudy
4:00 AM 49 °F 47 °F 88% 30.07 in 9 mi NE 4.6 mph - - Rain Light Rain
4:55 AM 48.2 °F 46.4 °F 93% 30.04 in 6.2 mi ENE 5.8 mph - N/A   Mostly Cloudy
5:55 AM 50.0 °F 46.4 °F 87% 30.04 in 6.2 mi East 9.2 mph - N/A   Scattered Clouds
6:55 AM 50.0 °F 44.6 °F 82% 30.04 in 6.2 mi East 10.4 mph - N/A   Scattered Clouds
7:00 AM 50 °F 45 °F 78% 30.05 in 9 mi East 10.4 mph - -   Partly Cloudy
7:55 AM 50.0 °F 44.6 °F 82% 30.04 in 6.2 mi East 11.5 mph - N/A   Scattered Clouds
8:55 AM 50.0 °F 46.4 °F 87% 30.04 in 6.2 mi East 10.4 mph - N/A   Scattered Clouds
9:55 AM 51.8 °F 46.4 °F 82% 30.06 in 6.2 mi ESE 10.4 mph - N/A   Scattered Clouds
10:00 AM 52 °F 46 °F 74% 30.07 in 11 mi ESE 10.4 mph - -   Scattered Clouds
10:55 AM 53.6 °F 48.2 °F 82% 30.06 in 6.2 mi ESE 13.8 mph - N/A   Mostly Cloudy
11:55 AM 55.4 °F 48.2 °F 77% 30.04 in 6.2 mi ESE 16.1 mph - N/A   Scattered Clouds
12:55 PM 55.4 °F 48.2 °F 77% 30.04 in 6.2 mi ESE 13.8 mph - N/A   Scattered Clouds
1:00 PM 55 °F 48 °F 69% 30.06 in 9 mi ESE 13.8 mph - -   Mostly Cloudy
1:55 PM 55.4 °F 48.2 °F 77% 30.04 in 6.2 mi ESE 16.1 mph - N/A   Scattered Clouds
2:55 PM 55.4 °F 48.2 °F 77% 30.04 in 6.2 mi ESE 15.0 mph - N/A   Scattered Clouds
3:55 PM 55.4 °F 48.2 °F 77% 30.06 in 6.2 mi ESE 13.8 mph - N/A   Scattered Clouds
4:00 PM 55 °F 48 °F 69% 30.07 in 9 mi ESE 13.8 mph - -   Scattered Clouds
4:55 PM 53.6 °F 48.2 °F 82% 30.06 in 6.2 mi East 12.7 mph - N/A   Mostly Cloudy
5:55 PM 53.6 °F 46.4 °F 77% 30.09 in 6.2 mi East 11.5 mph - N/A   Scattered Clouds
6:55 PM 53.6 °F 44.6 °F 72% 30.12 in 6.2 mi East 11.5 mph - N/A   Scattered Clouds
7:00 PM 54 °F 44 °F 61% 30.13 in 7 mi East 11.5 mph - -   Scattered Clouds
7:55 PM 53.6 °F 44.6 °F 72% 30.12 in 6.2 mi East 10.4 mph - N/A   Scattered Clouds
8:55 PM 51.8 °F 48.2 °F 88% 30.18 in 6.2 mi South 6.9 mph - N/A   Scattered Clouds
9:55 PM 50.0 °F 50.0 °F 100% 30.18 in 6.2 mi SSE 3.5 mph - N/A   Scattered Clouds
10:00 PM 51 °F 49 °F 92% 30.21 in 6 mi SSE 3.5 mph - -   Mostly Cloudy
10:55 PM 50.0 °F 48.2 °F 94% 30.21 in 6.2 mi NE 5.8 mph - N/A   Scattered Clouds
11:55 PM 48.2 °F 48.2 °F 100% 30.24 in 6.2 mi NNE 6.9 mph - N/A   Scattered Clouds